Date String (YYYY-MM-DD hh:mm:ss) UTC,Instrument flags,Ambient pressure (hPa),Sample flow (lpm),Bypass flow (lpm),Sample temperature (°C),Ambient temperature (°C),ASC tube jacket temperature (°C),LED temperature (°C),Box temperature (°C),Sample RH (%),Span deviation,Mass concentration (μg/m³),Mass concentration (μg/m³),Mass concentration (μg/m³)
DateTimeUTC,F1_M11,P_M11,Q1_M11,Q2_M11,T1_M11,T2_M11,T3_M11,T4_M11,T5_M11,U1_M11,ZSPAN_M11,X2_M11,X0_M11,X1_M11
2021-09-22 01:00:00,,0838.0,5.01,0.00,29.8,28.5,00.0,38.9,31.6,11.8,0000.0,0003.28,0011.35,0002.19
2021-09-22 01:01:00,,0838.0,4.99,0.00,29.8,28.6,00.0,38.9,31.7,11.7,0000.0,0003.27,0011.23,0002.20
2021-09-22 01:02:00,,0838.0,5.00,0.00,29.9,28.8,00.0,38.9,31.7,11.7,0000.0,0003.24,0011.77,0002.18
2021-09-22 01:03:00,,0838.0,5.01,0.00,29.9,28.9,00.0,38.9,31.8,11.7,0000.0,0003.26,0012.41,0002.17
2021-09-22 01:04:00,,0838.0,4.99,0.00,29.9,29.0,00.0,38.9,31.8,11.8,0000.0,0003.22,0012.70,0002.15
2021-09-22 01:05:00,,0837.9,5.00,0.00,30.0,29.0,00.0,38.9,31.9,11.7,0000.0,0003.21,0013.12,0002.14
2021-09-22 01:06:00,,0837.9,5.00,0.00,30.0,29.1,00.0,38.9,31.9,11.7,0000.0,0003.20,0011.34,0002.13
2021-09-22 01:07:00,,0837.9,5.00,0.00,30.0,29.2,00.0,39.0,31.9,11.6,0000.0,0003.20,0011.66,0002.12
2021-09-22 01:08:00,,0837.9,4.99,0.00,30.0,29.2,00.0,39.0,31.9,11.6,0000.0,0003.23,0012.23,0002.10
2021-09-22 01:09:00,,0837.9,4.99,0.00,30.1,29.3,00.0,39.0,32.0,11.6,0000.0,0003.26,0012.46,0002.09
2021-09-22 01:10:00,,0837.9,5.00,0.00,30.1,29.4,00.0,39.0,32.0,11.6,0000.0,0003.26,0012.32,0002.08
2021-09-22 01:11:00,,0837.9,5.00,0.00,30.1,29.4,00.0,39.0,32.0,11.6,0000.0,0003.23,0014.28,0002.08
2021-09-22 01:12:00,,0837.9,5.01,0.00,30.2,29.4,00.0,39.1,32.0,11.5,0000.0,0003.25,0015.39,0002.07
2021-09-22 01:13:00,,0837.9,5.01,0.00,30.2,29.5,00.0,39.1,32.1,11.5,0000.0,0003.26,0014.84,0002.08
2021-09-22 01:14:00,,0837.9,4.99,0.00,30.2,29.5,00.0,39.1,32.1,11.5,0000.0,0003.30,0014.66,0002.09
2021-09-22 01:15:00,,0837.9,5.00,0.00,30.2,29.5,00.0,39.1,32.1,11.5,0000.0,0003.31,0015.34,0002.10
2021-09-22 01:16:00,,0837.9,5.01,0.00,30.2,28.1,00.0,39.1,31.7,11.5,0000.0,0003.33,0015.21,0002.12
2021-09-22 01:17:00,,0837.9,5.01,0.00,30.0,26.5,00.0,39.1,31.2,11.6,0000.0,0003.33,0014.59,0002.13
2021-09-22 01:18:00,,0837.8,4.99,0.00,29.9,26.5,00.0,39.0,31.1,11.7,0000.0,0003.34,0014.89,0002.12
2021-09-22 01:19:00,,0837.8,5.00,0.00,29.8,26.9,00.0,39.0,31.3,11.7,0000.0,0003.27,0014.49,0002.12
2021-09-22 01:20:00,,0837.8,5.01,0.00,29.8,27.3,00.0,38.9,31.4,11.7,0000.0,0003.24,0015.68,0002.11
2021-09-22 01:21:00,,0837.9,4.99,0.00,29.8,27.6,00.0,38.9,31.4,11.7,0000.0,0003.24,0016.17,0002.09
2021-09-22 01:22:00,,0837.9,5.01,0.00,29.8,27.9,00.0,38.9,31.5,11.7,0000.0,0003.21,0014.10,0002.08
2021-09-22 01:23:00,,0837.9,4.99,0.00,29.8,28.2,00.0,38.9,31.5,11.7,0000.0,0003.16,0013.04,0002.05
2021-09-22 01:24:00,,0837.9,4.99,0.00,29.8,28.4,00.0,38.9,31.6,11.7,0000.0,0003.15,0013.30,0002.02
2021-09-22 01:25:00,,0838.0,5.00,0.00,29.8,28.6,00.0,38.9,31.6,11.7,0000.0,0003.11,0013.10,0002.00
2021-09-22 01:26:00,,0837.9,5.01,0.00,29.9,28.7,00.0,38.9,31.7,11.7,0000.0,0003.08,0012.10,0002.00
2021-09-22 01:27:00,,0838.0,4.99,0.00,29.9,28.8,00.0,38.9,31.7,11.8,0000.0,0003.11,0011.92,0001.99
2021-09-22 01:28:00,,0837.9,5.00,0.00,29.9,28.9,00.0,38.9,31.7,11.8,0000.0,0003.09,0012.19,0001.98
2021-09-22 01:29:00,,0838.0,5.01,0.00,30.0,29.0,00.0,38.9,31.8,11.8,0000.0,0003.07,0011.61,0001.99
2021-09-22 01:30:00,,0838.0,4.99,0.00,30.0,29.0,00.0,39.0,31.8,11.8,0000.0,0003.16,0011.85,0001.99
2021-09-22 01:31:00,,0838.0,5.01,0.00,30.0,29.1,00.0,39.0,31.8,11.8,0000.0,0003.14,0011.36,0001.99
2021-09-22 01:32:00,,0838.0,5.01,0.00,30.0,29.2,00.0,39.0,31.9,11.8,0000.0,0003.13,0010.68,0001.99
2021-09-22 01:33:00,,0838.0,4.99,0.00,30.1,29.2,00.0,39.0,31.9,11.7,0000.0,0003.14,0010.60,0002.00
2021-09-22 01:34:00,,0838.0,5.00,0.00,30.1,29.3,00.0,39.0,31.9,11.7,0000.0,0003.22,0010.66,0002.02
2021-09-22 01:35:00,,0838.0,5.00,0.00,30.1,29.3,00.0,39.0,31.9,11.7,0000.0,0003.24,0010.48,0002.03
2021-09-22 01:36:00,,0838.0,5.01,0.00,30.1,29.3,00.0,39.1,32.0,11.7,0000.0,0003.21,0010.12,0002.02
2021-09-22 01:37:00,,0838.0,4.99,0.00,30.2,29.4,00.0,39.1,32.0,11.7,0000.0,0003.19,0010.37,0002.00
2021-09-22 01:38:00,,0838.0,5.00,0.00,30.2,29.4,00.0,39.1,32.1,11.7,0000.0,0003.17,0011.00,0001.98
2021-09-22 01:39:00,,0838.0,5.02,0.00,30.2,29.5,00.0,39.1,32.1,11.7,0000.0,0003.16,0010.75,0001.98
2021-09-22 01:40:00,,0838.0,5.00,0.00,30.2,29.5,00.0,39.2,32.1,11.6,0000.0,0003.18,0010.71,0001.97
2021-09-22 01:41:00,,0838.0,5.00,0.00,30.2,29.5,00.0,39.2,32.1,11.6,0000.0,0003.13,0011.03,0001.98
2021-09-22 01:42:00,,0838.0,5.00,0.00,30.3,29.6,00.0,39.2,32.1,11.6,0000.0,0003.18,0010.88,0002.00
2021-09-22 01:43:00,,0838.0,5.00,0.00,30.3,29.4,00.0,39.2,32.1,11.6,0000.0,0003.19,0010.60,0001.99
2021-09-22 01:44:00,,0838.0,5.00,0.00,30.2,27.5,00.0,39.2,31.6,11.7,0000.0,0003.21,0010.84,0002.01
2021-09-22 01:45:00,,0838.0,5.00,0.00,30.0,26.4,00.0,39.1,31.2,11.8,0000.0,0003.17,0010.49,0002.01
2021-09-22 01:46:00,,0838.0,5.01,0.00,29.9,26.5,00.0,39.1,31.2,11.8,0000.0,0003.15,0010.39,0002.02
2021-09-22 01:47:00,,0838.0,4.99,0.00,29.8,26.9,00.0,39.0,31.2,11.9,0000.0,0003.18,0011.62,0002.03
2021-09-22 01:48:00,,0838.0,5.00,0.00,29.8,27.3,00.0,39.0,31.3,11.9,0000.0,0003.19,0011.32,0002.05
2021-09-22 01:49:00,,0838.0,5.00,0.00,29.8,27.7,00.0,39.0,31.4,11.9,0000.0,0003.20,0010.37,0002.06
2021-09-22 01:50:00,,0838.0,5.00,0.00,29.8,28.0,00.0,39.0,31.5,11.9,0000.0,0003.20,0010.99,0002.08
2021-09-22 01:51:00,,0838.1,5.00,0.00,29.8,28.2,00.0,38.9,31.5,11.9,0000.0,0003.20,0012.32,0002.09
2021-09-22 01:52:00,,0838.1,5.00,0.00,29.8,28.4,00.0,38.9,31.6,11.9,0000.0,0003.23,0012.61,0002.10
2021-09-22 01:53:00,,0838.0,5.02,0.00,29.9,28.6,00.0,38.9,31.6,11.9,0000.0,0003.23,0012.17,0002.09
2021-09-22 01:54:00,,0838.0,5.00,0.00,29.9,28.7,00.0,39.0,31.7,11.8,0000.0,0003.22,0012.23,0002.11
2021-09-22 01:55:00,,0838.1,4.99,0.00,29.9,28.8,00.0,39.0,31.7,11.8,0000.0,0003.18,0013.01,0002.11
2021-09-22 01:56:00,,0838.1,5.00,0.00,29.9,28.9,00.0,39.0,31.7,11.8,0000.0,0003.17,0013.22,0002.11
2021-09-22 01:57:00,,0838.1,5.00,0.00,30.0,29.0,00.0,39.0,31.7,11.8,0000.0,0003.21,0013.28,0002.12
2021-09-22 01:58:00,,0838.1,5.00,0.00,30.0,29.0,00.0,39.0,31.8,11.7,0000.0,0003.22,0012.76,0002.13
2021-09-22 01:59:00,,0838.1,5.00,0.00,30.0,29.1,00.0,39.0,31.8,11.7,0000.0,0003.24,0013.03,0002.14
